Location: Fours
(44.3167°N, 6.7000°E)
Time: 20:33:18
(UTC+00:00)

CZ-2C R/B - Pass Details

Date: 16 October 2021
Orbit: 784 x 871 km, 98.2° (Epoch: 29 November)

Event Time Altitude Azimuth Distance (km) Brightness Sun altitude
Rises 17:48:11 0° 14° (NNE) 3,470 5.7 -11.7°
Reaches altitude 10° 17:50:36 10° 15° (NNE) 2,527 5.0 -12.1°
Maximum altitude 17:56:15 80° 103° (ESE) 885 2.7 -13.1°
Drops below altitude 10° 18:01:48 10° 190° (S) 2,483 5.3 -14.1°
Sets 18:04:09 0° 192° (SSW) 3,404 6.0 -14.5°
